North Andover, MA

12:13 PM EST on February 21, 2017 (GMT -0500)
Lawrence Municipal

Weather History for KLWM - November, 2013

Change the Weather History Date:

Tuesday, November 5, 2013

  Actual Average Record
Temperature  
Mean Temperature 38 °F -  
Max Temperature 51 °F 57 °F 77 °F (1961)
Min Temperature 26 °F 38 °F 22 °F (1933)
Degree Days  
Heating Degree Days 26    
Moisture  
Dew Point 25 °F    
Average Humidity 60    
Maximum Humidity 81    
Minimum Humidity 36    
Precipitation  
Precipitation 0.00 in - - ()
Sea Level Pressure  
Sea Level Pressure 30.65 in    
Wind  
Wind Speed 1 mph (SSW)    
Max Wind Speed 6 mph    
Max Gust Speed -    
Visibility 10 miles    
Events      
Averages and records for this station are not official NWS values.
T = Trace of Precipitation, MM = Missing Value Source: NWS Daily Summary

Daily Weather History Graph

Daily Weather History Graph

Search for Another Location

Airport or City:

Trip Planner

Search our weather history database for the weather conditions in past years. The results will help you decide how hot, cold, wet, or windy it might be!

Date:

Astronomy

Nov. 05, 2013 Rise Set
Actual Time 6:23 AM EST 4:31 PM EST
Civil Twilight 5:54 AM EST 5:01 PM EST
Nautical Twilight 5:20 AM EST 5:35 PM EST
Astronomical Twilight 4:47 AM EST 6:08 PM EST
Moon 8:37 AM EST (11/5) 6:28 PM EST (11/5)
Length of Visible Light 11h 07m
Length of Day
10h 08m
Waxing Crescent, 6% of the Moon is Illuminated
Nov 5
Waxing Crescent
Nov 10
First Quarter
Nov 17
Full
Nov 25
Last Quarter
Dec 2
New

Hourly Weather History & Observations

Time (EST) Temp. Windchill Dew Point Humidity Pressure Visibility Wind Dir Wind Speed Gust Speed Precip Events Conditions
12:54 AM 28.0 °F - 19.9 °F 72% 30.73 in 10.0 mi Calm Calm - N/A   Clear
1:54 AM 27.0 °F - 21.0 °F 78% 30.72 in 10.0 mi Calm Calm - N/A   Clear
2:54 AM 26.1 °F - 21.0 °F 81% 30.73 in 10.0 mi Calm Calm - N/A   Clear
3:54 AM 27.0 °F - 21.0 °F 78% 30.72 in 10.0 mi Calm Calm - N/A   Clear
4:54 AM 27.0 °F - 21.0 °F 78% 30.71 in 10.0 mi Calm Calm - N/A   Clear
5:54 AM 27.0 °F - 21.0 °F 78% 30.72 in 10.0 mi Calm Calm - N/A   Clear
6:54 AM 28.9 °F - 21.9 °F 75% 30.73 in 10.0 mi Calm Calm - N/A   Clear
7:54 AM 32.0 °F - 24.1 °F 73% 30.74 in 10.0 mi Calm Calm - N/A   Clear
8:54 AM 37.9 °F - 25.0 °F 60% 30.73 in 10.0 mi Calm Calm - N/A   Clear
9:54 AM 44.1 °F 41.5 °F 21.9 °F 42% 30.72 in 10.0 mi WSW 4.6 mph - N/A   Clear
10:54 AM 46.0 °F - 24.1 °F 42% 30.70 in 10.0 mi Calm Calm - N/A   Clear
11:54 AM 48.0 °F - 24.1 °F 39% 30.68 in 10.0 mi Variable 4.6 mph - N/A   Clear
12:54 PM 48.9 °F - 24.1 °F 38% 30.65 in 10.0 mi Calm Calm - N/A   Clear
1:54 PM 50.0 °F - 24.1 °F 36% 30.62 in 10.0 mi Calm Calm - N/A   Clear
2:54 PM 51.1 °F - 25.0 °F 36% 30.60 in 10.0 mi Variable 3.5 mph - N/A   Clear
3:54 PM 48.9 °F - 25.0 °F 39% 30.60 in 10.0 mi SSW 4.6 mph - N/A   Clear
4:54 PM 46.0 °F 44.8 °F 28.0 °F 50% 30.59 in 10.0 mi SE 3.5 mph - N/A   Clear
5:54 PM 44.1 °F 41.5 °F 30.0 °F 58% 30.59 in 10.0 mi ESE 4.6 mph - N/A   Clear
6:54 PM 44.1 °F - 32.0 °F 63% 30.59 in 10.0 mi Calm Calm - N/A   Clear
7:54 PM 43.0 °F - 32.0 °F 65% 30.59 in 10.0 mi Calm Calm - N/A   Clear
8:54 PM 39.9 °F - 30.9 °F 70% 30.58 in 10.0 mi Calm Calm - N/A   Clear
9:54 PM 41.0 °F 39.0 °F 30.0 °F 65% 30.56 in 10.0 mi SW 3.5 mph - N/A   Clear
10:54 PM 39.9 °F 35.8 °F 30.0 °F 68% 30.54 in 10.0 mi SSW 5.8 mph - N/A   Clear
11:54 PM 41.0 °F 38.0 °F 30.0 °F 65% 30.53 in 10.0 mi SSW 4.6 mph - N/A   Clear